Powrót do katalogu

STARLINK-32676

AktywnyŁącznośćVLEO
NORAD 62426·PAYLOAD·🇺🇸 United States

Wystrzelony Dec 23, 2024 z Cape Canaveral Space Force Station

Loading…

Następne Przeloty (najbliższe 24 godziny)

TLE

ŚwieżeSource: CelesTrak SupGP

Epoka: Sep 15, 2026, 02:12 UTC

1 62426C 24249T   26258.09215278  .00046776  00000+0  16941-2 0  2588
2 62426  43.0014 324.9216 0001405 268.2358 125.7739 15.27557307    12

Śledź STARLINK-32676 w czasie rzeczywistym z AllMySat

Download on the App Store